Simultaneous Nadir Overpasses (SNOs) Predictions

Prediction of SNOs between AURA and NPP Satellite Orbit:

Table of predicted SNOs for the next 14.0 days since TLE Epoch: 5/10/2013
Index Date (AURA) Time (AURA) Lat,Lon (AURA) SZA (AURA ) Date (NPP) Time (NPP) Lat,Lon (NPP) SZA (NPP ) Distance(km) Time Diff (sec)
1 05/11/2013 03:42:19 79.36, 20.38 74.82 05/11/2013 03:41:15 79.36, 20.30 74.88 1.62 64
2 05/11/2013 04:31:39 -79.63,-170.15 105.59 05/11/2013 04:31:52 -79.63,-170.19 105.59 0.90 13
3 05/13/2013 19:58:46 79.44, 136.73 74.06 05/13/2013 19:58:08 79.43, 136.60 74.11 2.81 38
4 05/13/2013 20:48:07 -79.66, -54.02 106.30 05/13/2013 20:48:46 -79.66, -54.12 106.31 2.06 39
5 05/16/2013 12:15:14 79.58,-106.40 73.23 05/16/2013 12:14:59 79.59,-106.30 73.22 2.23 15
6 05/16/2013 13:04:35 -79.81, 62.90 107.13 05/16/2013 13:05:37 -79.81, 63.05 107.20 3.06 62
7 05/19/2013 03:42:26 -79.42,-159.30 107.11 05/19/2013 03:41:15 -79.43,-159.16 107.09 3.04 71
8 05/19/2013 04:31:47 79.61, 9.65 72.61 05/19/2013 04:31:54 79.61, 9.68 72.60 0.63 7
9 05/21/2013 19:59:01 -79.45, -43.27 107.68 05/21/2013 19:58:10 -79.45, -43.19 107.66 1.66 51




NCC Satellite Simultaneous Nadir Overpasses (SNOs) Prediction Service
